Location: Unspecified
(0.0000°N, 0.0000°E)
Time: 01:21:39
(UTC+00:00)

ITUPSAT 1 - Pass Details

Date: 17 December 2017
Orbit: 701 x 714 km, 98.6° (Epoch: 21 July)

Event Time Altitude Azimuth Distance (km) Brightness Sun altitude
Rises 02:57:19 0° 163° (SSE) 3,097 ? -40.2°
Reaches altitude 10° 02:59:35 10° 160° (SSE) 2,174 ? -39.7°
Enters shadow 02:59:48 11° 159° (SSE) 2,093 ? -39.7°
